Location: Newark
(27.5000°N, 79.4000°E)
Time: 18:20:44
(UTC+00:00)

Hubble Space Telescope - Visible Passes

Search period start: 14 December 2019 00:00
Search period end: 24 December 2019 00:00
Orbit: 536 x 540 km, 28.5° (Epoch: 14 December)

Date Brightness Start Highest point End Pass type
(mag) Time Alt. Az. Time Alt. Az. Time Alt. Az.
14 Dec 1.3 00:27:41 10° WSW 00:31:45 58° SSE 00:35:49 10° E visible
14 Dec 3.8 22:42:38 14° ESE 22:42:38 14° ESE 22:43:31 10° ESE visible
15 Dec 1.0 00:18:00 17° WSW 00:21:09 69° SSE 00:25:16 10° E visible
15 Dec 4.1 22:33:04 11° E 22:33:04 11° E 22:33:10 10° E visible
16 Dec 0.8 00:08:25 27° WSW 00:10:33 79° SSE 00:14:41 10° E visible
16 Dec 0.7 23:58:42 44° W 23:59:58 88° S 00:04:07 10° E visible
17 Dec 0.6 23:48:55 69° W 23:49:23 84° N 23:53:32 10° E visible
18 Dec 0.7 23:39:03 75° NE 23:39:03 75° NE 23:42:58 10° E visible
19 Dec 1.4 23:29:08 53° ENE 23:29:08 53° ENE 23:32:23 10° E visible
20 Dec 2.1 23:19:12 37° E 23:19:12 37° E 23:21:49 10° E visible
21 Dec 0.9 00:54:47 10° W 00:58:54 70° SSW 01:03:02 10° ESE visible
21 Dec 2.7 23:09:13 28° E 23:09:13 28° E 23:11:15 10° E visible
22 Dec 1.1 00:44:33 12° W 00:48:18 59° SSW 00:52:22 10° ESE visible
22 Dec 3.2 22:59:15 21° E 22:59:15 21° E 23:00:41 10° E visible
23 Dec 1.3 00:34:35 16° W 00:37:41 49° SSW 00:41:41 10° ESE visible
23 Dec 3.7 22:49:17 15° E 22:49:17 15° E 22:50:06 10° E visible
